Overview Statistics Trail Chart Weather Telemetry Raw packets
 

This is the latest recevied weather packets stored in our database for station/object NW5W-12. If no packets are shown the sender has not sent any weather packets the latest 10 day(s).

<< 110 111 112 113 114 115 116 >>
Time Temp. Humidity Pressure Rain* Wind** Luminosity Snow
1787868240 28.89° C 23% 1022.1 hPa 0 mm - - -
1787867940 29.44° C 22% 1022.1 hPa 0 mm - - -
1787867640 30.56° C 21% 1022.3 hPa 0 mm - - -
1787867340 30.56° C 20% 1022.4 hPa 0 mm - - -
1787867040 30° C 20% 1022.4 hPa 0 mm - - -
1787866739 31.11° C 20% 1022.5 hPa 0 mm - - -
1787866440 31.11° C 22% 1022.4 hPa 0 mm - - -
1787866139 30.56° C 23% 1022.5 hPa 0 mm - - -
1787865840 30.56° C 24% 1022.6 hPa 0 mm - - -
1787865540 30.56° C 23% 1022.6 hPa 0 mm - - -
1787865240 31.11° C 23% 1022.6 hPa 0 mm - - -
1787864940 31.11° C 23% 1022.7 hPa 0 mm - - -
1787864640 31.67° C 22% 1022.6 hPa 0 mm - - -
1787864340 31.11° C 22% 1022.6 hPa 0 mm - - -
1787864040 31.67° C 21% 1022.7 hPa 0 mm - - -
1787863740 32.22° C 20% 1022.8 hPa 0 mm - - -
1787863440 32.78° C 21% 1022.8 hPa 0 mm - - -
1787863140 32.22° C 24% 1022.8 hPa 0 mm - - -
1787862840 32.22° C 22% 1022.8 hPa 0 mm - - -
1787862540 31.67° C 22% 1022.9 hPa 0 mm - - -
1787862240 31.67° C 21% 1022.9 hPa 0 mm - - -
1787861940 32.22° C 21% 1022.9 hPa 0 mm - - -
1787861640 32.22° C 22% 1022.8 hPa 0 mm - - -
1787861340 31.67° C 23% 1022.8 hPa 0 mm - - -
1787861040 31.67° C 24% 1022.9 hPa 0 mm - - -

* Rain since midnight (hover to see other rain measurements)
** Current wind speed in m/s (hover to see current wind gust speed)